Reportages photos

Connexion

15Km

LA CUESTA du 27/08/16 (Reelle 14)
Rang Dossard Nom Prénom Temps Cat Rang Cat Ecart Ecart Cat Club Vitesse Km/h Temps au Km
1 82 PRUVOST YOHAN 00:49:18 SEM 1 00:00:00 00:00:00 AS MARCK 17,039 03:31
2 98 RAMET BENOIT 00:51:20 SEM 2 00:02:02 00:02:02 TOUQUET OPALE ATHLETISME 16,364 03:40
3 4 PENOT aurelien 00:56:44 SEM 3 00:07:26 00:07:26 - 14,806 04:03
4 109 MAQUINGHEN CHRISTOPHE 00:57:14 V1M 1 00:07:56 00:00:00 SAINT MARTIN ATHLETISME 14,677 04:05
5 24 DANGLETERRE dimitri 00:57:51 SEM 4 00:08:33 00:08:33 T O A 14,520 04:08
6 39 LEBLONG arnaud 00:57:58 V1M 2 00:08:40 00:00:44 ac capellois 14,491 04:08
7 106 PERRAULT DAVID 00:58:03 V1M 3 00:08:45 00:00:49 AS CAMIERS 14,470 04:09
8 76 DUCOURANT FRANCOIS 00:58:18 ESM 1 00:09:00 00:00:00 VALENCIA CA 14,408 04:10
9 108 GUERVILLE JEREMIE 00:58:47 V1M 4 00:09:29 00:01:33 TOUQUET OPALE ATHLETISME 14,290 04:12
10 1 CASTEL christophe 00:59:38 V1M 5 00:10:20 00:02:24 - 14,086 04:16
11 73 VIEZ cedrick 01:00:14 V1M 6 00:10:56 00:03:00 - 13,946 04:18
12 104 FOUBLE LAURENT 01:00:31 SEM 5 00:11:13 00:11:13 MARQUISE ATHLETISME 13,880 04:19
13 124 GOEURY CHARLES-HENRI 01:02:09 SEM 6 00:12:51 00:12:51 - 13,516 04:26
14 13 GRESSIER olivier 01:02:35 V1M 7 00:13:17 00:05:21 frevent olympi 13,422 04:28
15 114 TAVERNE DAMIEN 01:03:41 SEM 7 00:14:23 00:14:23 TOUQUET OPALE ATHLETISME 13,190 04:33
16 125 CHERBONNEL ANTONIN 01:03:46 ESM 2 00:14:28 00:05:28 - 13,173 04:33
17 94 LABOURDETTE SEBASTIEN 01:04:23 V1M 8 00:15:05 00:07:09 - 13,047 04:36
18 110 PHILIPPOT DAMIEN 01:04:29 SEM 8 00:15:11 00:15:11 - 13,027 04:36
19 67 LOUCHET Martin 01:04:44 ESM 3 00:15:26 00:06:26 - 12,976 04:37
20 90 MIRMONT REMI 01:05:23 SEM 9 00:16:05 00:16:05 ENTENTE MARITIME ATHL. 12,847 04:40
21 65 RAY sam 01:05:24 V1M 9 00:16:06 00:08:10 - 12,844 04:40
22 23 CHARTAUX raphael 01:05:51 V1M 10 00:16:33 00:08:37 TOT TRAIL N 12,756 04:42
23 53 FLAHAUT daniel 01:06:10 V1M 11 00:16:52 00:08:56 le portel 12,695 04:44
24 84 FRANCOIS THOMAS 01:06:10 SEM 10 00:16:52 00:16:52 BERCK A C O 12,695 04:44
25 33 BEGUE thierry 01:07:03 V1M 12 00:17:45 00:09:49 - 12,528 04:47
26 68 GOBERT ludovic 01:07:06 SEM 11 00:17:48 00:17:48 - 12,519 04:48
27 117 DUMONT GEORGES 01:07:08 V1M 13 00:17:50 00:09:54 - 12,512 04:48
28 14 FLAHAUT cyril 01:07:15 SEM 12 00:17:57 00:17:57 - 12,491 04:48
29 105 LEGENDRE DAVID 01:07:22 SEM 13 00:18:04 00:18:04 SIB IMPRIMERIE 12,469 04:49
30 69 LHEUREUX benjamin 01:07:22 SEM 14 00:18:04 00:18:04 raja sport 12,469 04:49
31 50 CHOUROT lucien 01:07:32 V2M 1 00:18:14 00:00:00 le portel 12,438 04:49
32 95 LIGNIER SEBASTIEN 01:07:53 SEM 15 00:18:35 00:18:35 NON LICENCIE 12,374 04:51
33 5 PHILIS jacques 01:08:16 V3M 1 00:18:58 00:00:00 T,O,A 12,305 04:53
34 83 LECIGNE DIDIER 01:08:30 V3M 2 00:19:12 00:00:14 - 12,263 04:54
35 31 BUQUET stephane 01:08:49 V1M 14 00:19:31 00:11:35 caloterie 12,206 04:55
36 51 DAMIENS phillippe 01:08:50 V1M 15 00:19:32 00:11:36 le portel 12,203 04:55
37 26 ROBART eddy 01:08:56 V1M 16 00:19:38 00:11:42 cs nesles 12,186 04:55
38 116 OGES NICOLAS 01:09:04 V1M 17 00:19:46 00:11:50 ETAPLES TRIATHLON 12,162 04:56
39 27 BAHEUX jean michel 01:09:06 V3M 3 00:19:48 00:00:50 - 12,156 04:56
40 41 JOUGLEUX thibault 01:09:16 CAM 1 00:19:58 00:00:00 ccs nesles 12,127 04:57
41 88 BRICHEZ GUILLAUME 01:09:18 V1M 18 00:20:00 00:12:04 - 12,121 04:57
42 86 MALLIOPOULOS XAVIER 01:09:21 V2M 2 00:20:03 00:01:49 BERCK A C O 12,112 04:57
43 113 WILLAERT JULIEN 01:09:37 V1M 19 00:20:19 00:12:23 - 12,066 04:58
44 123 SAGNIER JULIEN 01:09:41 V1M 20 00:20:23 00:12:27 - 12,055 04:59
45 120 DELATTRE REMY 01:09:43 SEM 16 00:20:25 00:20:25 - 12,049 04:59
46 121 LEMAY ERIC 01:09:54 V2M 3 00:20:36 00:02:22 - 12,017 05:00
47 20 CANNIE franck 01:10:08 V1M 21 00:20:50 00:12:54 - 11,977 05:01
48 119 MENAGER ARNAUD 01:10:17 SEM 17 00:20:59 00:20:59 BERCK A C O 11,952 05:01
49 126 ORIA ALEXANDRE 01:10:26 SEM 18 00:21:08 00:21:08 - 11,926 05:02
50 78 COLLIER GUILLAUME 01:10:26 SEM 19 00:21:08 00:21:08 CS NESLES 11,926 05:02
51 118 GOSSELIN QUENTIN 01:10:27 SEM 20 00:21:09 00:21:09 - 11,923 05:02
52 19 BLANPAIN olivier 01:10:28 V2M 4 00:21:10 00:02:56 val medijod 11,921 05:02
53 64 MARGOLLÉ christophe 01:11:04 V1M 22 00:21:46 00:13:50 - 11,820 05:05
54 37 LAURENT jocelyn 01:11:19 V2M 5 00:22:01 00:03:47 culture danse 11,778 05:06
55 85 DAVIAUD FABRICE 01:11:24 V1M 23 00:22:06 00:14:10 ARTOIS ATHLETISME 11,765 05:06
56 49 AUZOU jean paul 01:11:34 V2M 6 00:22:16 00:04:02 le portel 11,737 05:07
57 93 DIEFFENBACH MARTIAL 01:11:41 V1M 24 00:22:23 00:14:27 - 11,718 05:07
58 55 HANON jean pierre 01:11:55 V3M 4 00:22:37 00:03:39 le portel 11,680 05:08
59 115 VANDERMOLEN PHILIPPE 01:12:02 V2M 7 00:22:44 00:04:30 - 11,661 05:09
60 107 DEWEER NICOLAS 01:12:16 SEM 21 00:22:58 00:22:58 CS NESLES 11,624 05:10
61 7 FAIT jeanphy 01:12:21 V1M 25 00:23:03 00:15:07 TOT TRAIL N 11,610 05:10
62 62 VANHERSECK amandine 01:12:21 SEF 1 00:23:03 00:00:00 le portel 11,610 05:10
63 103 RENARD JULIEN 01:12:59 V1M 26 00:23:41 00:15:45 TEAM TRAIL 62 11,509 05:13
64 72 DELESTREZ marie noelle 01:13:05 V2F 1 00:23:47 00:00:00 - 11,494 05:13
65 15 DUHAMEL vincent 01:13:24 V1M 27 00:24:06 00:16:10 - 11,444 05:15
66 8 GUERVILLE franck 01:13:29 V2M 8 00:24:11 00:05:57 - 11,431 05:15
67 96 ROBERT DAVID 01:13:31 V1M 28 00:24:13 00:16:17 ATHLETISME CLUB OUTREAU 11,426 05:15
68 11 VANDECASTEELE patrice 01:13:36 V3M 5 00:24:18 00:05:20 USCUD 11,413 05:15
69 91 DAQUIN GERARD 01:14:34 V2M 9 00:25:16 00:07:02 SAINT MARTIN ATHLETISME 11,265 05:20
70 81 MILLOT PATRICK 01:15:54 V3M 6 00:26:36 00:07:38 - 11,067 05:25
71 111 CAUDOUX PATRICK 01:16:02 V1M 29 00:26:44 00:18:48 - 11,048 05:26
72 87 LOOSEN FREDERICQ 01:16:42 SEM 22 00:27:24 00:27:24 - 10,952 05:29
73 100 OUINEZ ALI 01:16:42 V2M 10 00:27:24 00:09:10 BACO 10,952 05:29
74 58 LEPERCQ florent 01:17:11 V2M 11 00:27:53 00:09:39 le portel 10,883 05:31
75 99 CANEL JEAN-MICHEL 01:17:26 V2M 12 00:28:08 00:09:54 - 10,848 05:32
76 22 CHARTAUX suzel 01:17:40 V1F 1 00:28:22 00:00:00 nesle 10,815 05:33
77 38 LEROUGE david 01:17:41 V1M 30 00:28:23 00:20:27 nesles 10,813 05:33
78 75 PAQUES ERIC 01:17:52 V2M 13 00:28:34 00:10:20 LE DRAPEAU 10,788 05:34
79 43 FOUCAULT pascal 01:18:04 V2M 14 00:28:46 00:10:32 culture dance 10,760 05:35
80 36 RAY isabelle 01:18:13 V1F 2 00:28:55 00:00:33 culture danse 10,739 05:35
81 9 COUSIN alexandre 01:18:36 SEM 23 00:29:18 00:29:18 C,A,C 10,687 05:37
82 102 SALON PATRICK 01:18:59 V2M 15 00:29:41 00:11:27 CAC CALOTERIE 10,635 05:39
83 101 BAUDRIN FABRICE 01:19:39 V1M 31 00:30:21 00:22:25 BACO 10,546 05:41
84 32 CAPEL GUILLAUEM 01:19:46 SEM 24 00:30:28 00:30:28 - 10,531 05:42
85 56 HANON liliane 01:19:56 V3F 1 00:30:38 00:00:00 Le portel 10,509 05:43
86 12 NOEL sandrine 01:20:20 SEF 2 00:31:02 00:07:59 elan frugeois 10,456 05:44
87 74 LEPRETRE EMMANUEL 01:21:10 V1M 32 00:31:52 00:23:56 - 10,349 05:48
88 3 DAVID edith 01:21:19 V2F 2 00:32:01 00:08:14 - 10,330 05:48
89 112 DELAY MICKAEL 01:21:28 V1M 33 00:32:10 00:24:14 AS CAMIERS 10,311 05:49
90 77 LEGRAND MICHELE 01:21:44 V2F 3 00:32:26 00:08:39 TOUQUET OPALE ATHLETISME 10,277 05:50
91 45 DAUCHEZ bruno 01:22:25 V2M 16 00:33:07 00:14:53 caloterie 10,192 05:53
92 122 HACQUEL MICHEL 01:22:55 V1M 34 00:33:37 00:25:41 LE DRAPEAU 10,131 05:55
93 89 LAVIALLE CEDRIC 01:23:34 V1M 35 00:34:16 00:26:20 - 10,052 05:58
94 80 DESCAMPS THOMAS 01:24:45 V1M 36 00:35:27 00:27:31 - 9,912 06:03
95 30 DOURDET fabrice 01:24:58 V2M 17 00:35:40 00:17:26 - 9,886 06:04
96 29 GUINCHARD sebastien 01:25:54 SEM 25 00:36:36 00:36:36 - 9,779 06:08
97 97 LAMBERT SERGE 01:26:37 V2M 18 00:37:19 00:19:05 - 9,698 06:11
98 2 DAVID sylvain 01:26:43 V2M 19 00:37:25 00:19:11 - 9,687 06:12
99 42 BILLIET adrien 01:27:29 SEM 26 00:38:11 00:38:11 - 9,602 06:15
100 70 SKRZYPCZYK olivier 01:27:29 V1M 37 00:38:11 00:30:15 - 9,602 06:15
101 46 HUYNH khiem 01:27:30 SEM 27 00:38:12 00:38:12 - 9,600 06:15
102 21 SAILLY herve 01:27:52 V2M 20 00:38:34 00:20:20 - 9,560 06:17
103 34 BEGUE Amelie 01:31:00 JUF 1 00:41:42 00:00:00 - 9,231 06:30
104 48 GOSSE marine 01:32:07 SEF 3 00:42:49 00:19:46 - 9,119 06:35
105 66 DELPOUVE thomas 01:32:08 SEM 28 00:42:50 00:42:50 - 9,117 06:35
106 35 SERROEN thomas 01:32:08 SEM 29 00:42:50 00:42:50 free runners 9,117 06:35
107 61 STUBERT edwige 01:32:42 V1F 3 00:43:24 00:15:02 le portel 9,061 06:37
108 54 GUEUDRE fabrice 01:32:42 SEM 30 00:43:24 00:43:24 Le portel 9,061 06:37
109 59 MODOLO fanny 01:32:42 V1F 4 00:43:24 00:15:02 le portel 9,061 06:37
110 71 MAGNIER regis 01:34:14 V1M 38 00:44:56 00:37:00 culture danse 8,914 06:44
111 47 LOUCHET anne claude 01:34:23 V1F 5 00:45:05 00:16:43 - 8,900 06:44
112 79 ROUSSEL ROBERT 01:35:37 V3M 7 00:46:19 00:27:21 - 8,785 06:50
113 10 SENEZ gerard 01:36:17 V3M 8 00:46:59 00:28:01 - 8,724 06:53
114 92 MACHOWIAK FRANCIS 01:36:29 V3M 9 00:47:11 00:28:13 BERCK A C O 8,706 06:54
115 16 CAUDOUX delphine 01:37:22 SEF 4 00:48:04 00:25:01 - 8,627 06:57
116 17 DE WOLF patrice 01:37:22 V1M 39 00:48:04 00:40:08 - 8,627 06:57
117 63 DUCLOY sybille 01:44:06 V1F 6 00:54:48 00:26:26 - 8,069 07:26
118 18 BLANPAIN maryse 01:44:06 V2F 4 00:54:48 00:31:01 val medijod 8,069 07:26
119 6 HUGO alain 02:01:25 V3M 10 01:12:07 00:53:09 C C CASSEL 6,918 08:40